Date String (YYYY-MM-DD hh:mm:ss) UTC,Instrument flags,absolute air pressure of the measurement (hPa),sample flow rate (lpm),inlet stack bypass flow (lpm),air temperature of the measurement (°C),ambient temperature measured by the external sensor (°C),aerosol sample conditioner tube jacket temperature (°C),OPC LED temperature (°C),internal box temperature (°C),relative humidity of the measurement (%),span deviation,mass concentration of particles derived from Lorenz-Mie calculation of OPC scattering (μg/m³),mass concentration of particles derived from Lorenz-Mie calculation of OPC scattering (μg/m³),mass concentration of particles derived from Lorenz-Mie calculation of OPC scattering (μg/m³)
DateTimeUTC,F1_M11,P_M11,Q1_M11,Q2_M11,T1_M11,T2_M11,T3_M11,T4_M11,T5_M11,U1_M11,ZSPAN_M11,X2_M11,X0_M11,X1_M11
2024-06-18 20:00:00,SystemResetWarning,0826.8,5.00,000.00,028.4,027.6,000.0,036.9,030.2,011.4,0000.0,0004.77,0025.60,0001.70
2024-06-18 20:01:00,SystemResetWarning,0826.7,5.00,000.00,028.4,027.6,000.0,036.9,030.2,011.4,0000.0,0004.73,0025.83,0001.70
2024-06-18 20:02:00,SystemResetWarning,0826.8,5.00,000.00,028.4,027.6,000.0,036.9,030.2,011.3,0000.0,0004.76,0027.08,0001.71
2024-06-18 20:03:00,SystemResetWarning,0826.8,5.00,000.00,028.4,027.6,000.0,036.9,030.2,011.6,0000.0,0004.75,0028.27,0001.71
2024-06-18 20:04:00,SystemResetWarning,0826.8,5.00,000.00,028.4,027.6,000.0,036.9,030.2,011.5,0000.0,0004.81,0030.19,0001.72
2024-06-18 20:05:00,SystemResetWarning,0826.7,5.00,000.00,028.4,027.6,000.0,036.9,030.2,011.7,0000.0,0004.82,0031.97,0001.72
2024-06-18 20:06:00,SystemResetWarning,0826.8,5.00,000.00,028.4,027.6,000.0,036.9,030.2,011.9,0000.0,0004.84,0034.34,0001.70
2024-06-18 20:07:00,SystemResetWarning,0826.8,5.01,000.00,028.4,027.7,000.0,036.9,030.2,012.0,0000.0,0004.87,0034.34,0001.70
2024-06-18 20:08:00,SystemResetWarning,0826.8,5.00,000.00,028.4,027.7,000.0,036.9,030.3,011.7,0000.0,0004.80,0034.28,0001.68
2024-06-18 20:09:00,SystemResetWarning,0826.6,4.99,000.00,028.4,027.7,000.0,036.9,030.3,011.8,0000.0,0004.79,0038.53,0001.70
2024-06-18 20:10:00,SystemResetWarning,0826.6,5.00,000.00,028.4,027.7,000.0,037.0,030.2,012.2,0000.0,0004.80,0040.14,0001.69
2024-06-18 20:11:00,SystemResetWarning,0826.7,5.00,000.00,028.4,027.7,000.0,037.0,030.3,011.7,0000.0,0004.83,0041.07,0001.69
2024-06-18 20:12:00,SystemResetWarning,0826.7,4.99,000.00,028.5,027.7,000.0,037.0,030.3,012.0,0000.0,0004.89,0041.04,0001.71
2024-06-18 20:13:00,SystemResetWarning,0826.8,4.99,000.00,028.5,027.7,000.0,037.0,030.3,012.0,0000.0,0004.96,0041.29,0001.72
2024-06-18 20:14:00,SystemResetWarning,0826.7,5.01,000.00,028.5,027.7,000.0,037.0,030.3,011.9,0000.0,0005.01,0040.03,0001.76
2024-06-18 20:15:00,SystemResetWarning,0826.7,5.00,000.00,028.5,027.7,000.0,037.0,030.3,012.0,0000.0,0004.98,0038.84,0001.77
2024-06-18 20:16:00,SystemResetWarning,0826.8,5.00,000.00,028.5,027.7,000.0,037.0,030.3,012.4,0000.0,0004.97,0038.82,0001.76
2024-06-18 20:17:00,SystemResetWarning,0826.8,5.00,000.00,028.5,027.7,000.0,037.0,030.3,012.3,0000.0,0005.00,0038.37,0001.76
2024-06-18 20:18:00,SystemResetWarning,0826.8,4.99,000.00,028.5,027.7,000.0,037.0,030.3,012.1,0000.0,0005.03,0040.31,0001.77
2024-06-18 20:19:00,SystemResetWarning,0826.8,4.99,000.00,028.5,027.8,000.0,037.0,030.4,012.0,0000.0,0005.08,0041.14,0001.78
2024-06-18 20:20:00,SystemResetWarning,0826.8,5.00,000.00,028.5,027.8,000.0,037.0,030.4,011.2,0000.0,0005.06,0038.17,0001.77
2024-06-18 20:21:00,SystemResetWarning,0826.8,5.00,000.00,028.5,027.8,000.0,037.0,030.3,011.3,0000.0,0005.11,0037.97,0001.76
2024-06-18 20:22:00,SystemResetWarning,0826.8,4.99,000.00,028.5,027.8,000.0,037.0,030.3,012.1,0000.0,0005.17,0037.28,0001.77
2024-06-18 20:23:00,SystemResetWarning,0826.8,5.00,000.00,028.5,027.8,000.0,037.0,030.3,011.7,0000.0,0005.13,0037.55,0001.76
2024-06-18 20:24:00,SystemResetWarning,0826.8,5.01,000.00,028.5,027.8,000.0,037.0,030.4,011.5,0000.0,0005.01,0036.90,0001.75
2024-06-18 20:25:00,SystemResetWarning,0826.8,5.00,000.00,028.5,027.8,000.0,037.1,030.4,011.7,0000.0,0004.90,0035.17,0001.74
2024-06-18 20:26:00,SystemResetWarning,0826.8,4.99,000.00,028.5,027.8,000.0,037.1,030.4,011.7,0000.0,0004.95,0035.08,0001.72
2024-06-18 20:27:00,SystemResetWarning,0826.8,4.99,000.00,028.6,027.8,000.0,037.1,030.4,011.6,0000.0,0004.96,0033.86,0001.74
2024-06-18 20:28:00,SystemResetWarning,0826.8,5.00,000.00,028.6,027.8,000.0,037.1,030.4,011.9,0000.0,0004.97,0034.40,0001.76
2024-06-18 20:29:00,SystemResetWarning,0826.8,5.01,000.00,028.6,027.8,000.0,037.1,030.4,011.7,0000.0,0004.92,0033.36,0001.76
2024-06-18 20:30:00,SystemResetWarning,0826.8,5.00,000.00,028.6,027.8,000.0,037.1,030.4,011.7,0000.0,0004.90,0031.71,0001.76
2024-06-18 20:31:00,SystemResetWarning,0826.8,5.00,000.00,028.6,027.8,000.0,037.1,030.4,012.1,0000.0,0004.95,0031.16,0001.75
2024-06-18 20:32:00,SystemResetWarning,0826.8,4.99,000.00,028.6,027.8,000.0,037.1,030.4,011.9,0000.0,0004.95,0028.15,0001.76
2024-06-18 20:33:00,SystemResetWarning,0826.9,5.00,000.00,028.6,027.8,000.0,037.1,030.4,011.5,0000.0,0004.97,0028.14,0001.77
2024-06-18 20:34:00,SystemResetWarning,0826.9,5.00,000.00,028.6,027.8,000.0,037.1,030.4,011.4,0000.0,0005.05,0028.84,0001.80
2024-06-18 20:35:00,SystemResetWarning,0826.9,5.00,000.00,028.6,027.8,000.0,037.1,030.4,011.4,0000.0,0005.07,0028.29,0001.81
2024-06-18 20:36:00,SystemResetWarning,0826.9,5.01,000.00,028.6,027.8,000.0,037.1,030.4,011.6,0000.0,0005.08,0028.02,0001.81
2024-06-18 20:37:00,SystemResetWarning,0826.9,5.00,000.00,028.6,027.9,000.0,037.1,030.4,011.8,0000.0,0005.03,0030.65,0001.82
2024-06-18 20:38:00,SystemResetWarning,0826.9,5.01,000.00,028.6,027.9,000.0,037.1,030.4,012.3,0000.0,0005.05,0031.30,0001.83
2024-06-18 20:39:00,SystemResetWarning,0826.9,5.00,000.00,028.6,027.9,000.0,037.1,030.4,011.7,0000.0,0005.01,0031.13,0001.82
2024-06-18 20:40:00,SystemResetWarning,0826.9,4.99,000.00,028.6,027.9,000.0,037.1,030.4,011.8,0000.0,0004.95,0030.23,0001.84
2024-06-18 20:41:00,SystemResetWarning,0826.9,4.99,000.00,028.6,027.9,000.0,037.1,030.4,012.3,0000.0,0004.94,0032.30,0001.85
2024-06-18 20:42:00,SystemResetWarning,0826.9,5.01,000.00,028.6,027.9,000.0,037.1,030.5,011.9,0000.0,0004.93,0034.20,0001.85
2024-06-18 20:43:00,SystemResetWarning,0826.9,5.01,000.00,028.6,027.9,000.0,037.2,030.5,011.8,0000.0,0004.97,0035.79,0001.86
2024-06-18 20:44:00,SystemResetWarning,0826.9,5.00,000.00,028.7,027.9,000.0,037.2,030.5,012.1,0000.0,0004.91,0036.07,0001.87
2024-06-18 20:45:00,SystemResetWarning,0827.0,5.00,000.00,028.7,027.9,000.0,037.2,030.5,012.2,0000.0,0004.90,0036.25,0001.86
2024-06-18 20:46:00,SystemResetWarning,0826.9,4.99,000.00,028.7,027.9,000.0,037.2,030.5,012.0,0000.0,0004.99,0035.54,0001.85
2024-06-18 20:47:00,SystemResetWarning,0827.0,5.00,000.00,028.7,027.9,000.0,037.2,030.5,011.9,0000.0,0005.05,0037.05,0001.84
2024-06-18 20:48:00,SystemResetWarning,0827.0,4.99,000.00,028.7,027.9,000.0,037.2,030.5,011.4,0000.0,0005.02,0034.76,0001.84
2024-06-18 20:49:00,SystemResetWarning,0827.0,5.01,000.00,028.7,027.9,000.0,037.2,030.5,011.8,0000.0,0005.02,0034.10,0001.84
2024-06-18 20:50:00,SystemResetWarning,0827.0,5.02,000.00,028.7,028.0,000.0,037.2,030.5,011.5,0000.0,0004.98,0034.49,0001.84
2024-06-18 20:51:00,SystemResetWarning,0826.9,4.99,000.00,028.7,028.0,000.0,037.2,030.6,011.9,0000.0,0005.12,0034.55,0001.84
2024-06-18 20:52:00,SystemResetWarning,0826.9,4.99,000.00,028.7,028.0,000.0,037.2,030.6,012.2,0000.0,0005.20,0036.58,0001.82
2024-06-18 20:53:00,SystemResetWarning,0827.0,4.99,000.00,028.7,028.0,000.0,037.2,030.6,011.7,0000.0,0005.21,0035.71,0001.83
2024-06-18 20:54:00,SystemResetWarning,0826.9,5.01,000.00,028.8,028.0,000.0,037.3,030.6,012.2,0000.0,0005.13,0036.00,0001.82
2024-06-18 20:55:00,SystemResetWarning,0827.0,5.00,000.00,028.8,028.0,000.0,037.3,030.6,011.5,0000.0,0005.13,0036.94,0001.81
2024-06-18 20:56:00,SystemResetWarning,0827.0,5.00,000.00,028.8,028.1,000.0,037.3,030.6,011.7,0000.0,0005.11,0035.81,0001.80
2024-06-18 20:57:00,SystemResetWarning,0827.0,5.01,000.00,028.8,028.1,000.0,037.3,030.6,011.6,0000.0,0004.99,0036.22,0001.79
2024-06-18 20:58:00,SystemResetWarning,0827.0,5.00,000.00,028.8,028.1,000.0,037.3,030.7,011.7,0000.0,0004.94,0035.25,0001.79
2024-06-18 20:59:00,SystemResetWarning,0827.0,4.99,000.00,028.8,028.1,000.0,037.3,030.7,011.4,0000.0,0004.96,0035.67,0001.79
